TURKSAT 6A

Last updated on Sun Jun 21 2026 00:03:09 GMT+0000 (Coordinated Universal Time)

1 60233U 24127A 26171.18640370 .00000000 00000+0 00000+0 0 9994 2 60233 0.0134 188.2343 0001706 301.1136 248.1457 1.00271169 7041
UTC large
Height (km)
Speed (km/s)
/
Latitude / Longitude
Inclination (degrees)
Orbital Period (minutes)
Azimuth
Elevation
Range (km)
Doppler Factor

Next 0 passes for location: London (51.5072 / 0.1276)

No passes found over London.
TURKSAT 6A